����������;��������(kVARh)
2017-07-03 00:00;17,8
2017-07-03 00:15;19,65
2017-07-03 00:30;18,5
2017-07-03 00:45;21,7
2017-07-03 01:00;28,3
2017-07-03 01:15;31,8
2017-07-03 01:30;31,6
2017-07-03 01:45;31,85
2017-07-03 02:00;25,75
2017-07-03 02:15;25,65
2017-07-03 02:30;26,1
2017-07-03 02:45;25,05
2017-07-03 03:00;25,3
2017-07-03 03:15;25,45
2017-07-03 03:30;25,25
2017-07-03 03:45;27,05
2017-07-03 04:00;27,75
2017-07-03 04:15;26,6
2017-07-03 04:30;25,95
2017-07-03 04:45;28,05
2017-07-03 05:00;29,2
2017-07-03 05:15;28
2017-07-03 05:30;27,45
2017-07-03 05:45;27,45
2017-07-03 06:00;24,85
2017-07-03 06:15;18,3
2017-07-03 06:30;19,35
2017-07-03 06:45;20,25
2017-07-03 07:00;22,2
2017-07-03 07:15;27,15
2017-07-03 07:30;28,4
2017-07-03 07:45;30,05
2017-07-03 08:00;34
2017-07-03 08:15;32,9
2017-07-03 08:30;34,95
2017-07-03 08:45;39,3
2017-07-03 09:00;56,2
2017-07-03 09:15;80,2
2017-07-03 09:30;84,55
2017-07-03 09:45;90
2017-07-03 10:00;69,1
2017-07-03 10:15;79,7
2017-07-03 10:30;82,95
2017-07-03 10:45;79,65
2017-07-03 11:00;82,15
2017-07-03 11:15;83,75
2017-07-03 11:30;89,95
2017-07-03 11:45;76,2
2017-07-03 12:00;82,65
2017-07-03 12:15;88,4
2017-07-03 12:30;89,9
2017-07-03 12:45;124,6
2017-07-03 13:00;132,95
2017-07-03 13:15;107,05
2017-07-03 13:30;105,4
2017-07-03 13:45;103,55
2017-07-03 14:00;98,95
2017-07-03 14:15;102,25
2017-07-03 14:30;106,2
2017-07-03 14:45;101,2
2017-07-03 15:00;95,15
2017-07-03 15:15;105
2017-07-03 15:30;103,5
2017-07-03 15:45;100,65
2017-07-03 16:00;97,55
2017-07-03 16:15;98,35
2017-07-03 16:30;90,25
2017-07-03 16:45;69,3
2017-07-03 17:00;73,6
2017-07-03 17:15;69,15
2017-07-03 17:30;59,45
2017-07-03 17:45;68,2
2017-07-03 18:00;63,35
2017-07-03 18:15;59,65
2017-07-03 18:30;65,4
2017-07-03 18:45;60,45
2017-07-03 19:00;53
2017-07-03 19:15;43,15
2017-07-03 19:30;40,7
2017-07-03 19:45;37,3
2017-07-03 20:00;35,6
2017-07-03 20:15;34,2
2017-07-03 20:30;34,25
2017-07-03 20:45;34,45
2017-07-03 21:00;37,3
2017-07-03 21:15;35,1
2017-07-03 21:30;34,7
2017-07-03 21:45;32,05
2017-07-03 22:00;30,15
2017-07-03 22:15;29,9
2017-07-03 22:30;32,1
2017-07-03 22:45;34,85
2017-07-03 23:00;36,5
2017-07-03 23:15;37,05
2017-07-03 23:30;37,65
2017-07-03 23:45;34,8
2017-07-04 00:00;35,1
2017-07-04 00:15;35,4
2017-07-04 00:30;29,45
2017-07-04 00:45;24,6
2017-07-04 01:00;21,4
2017-07-04 01:15;11,7
2017-07-04 01:30;10,85
2017-07-04 01:45;11,65
2017-07-04 02:00;13,5
2017-07-04 02:15;11,7
2017-07-04 02:30;12
2017-07-04 02:45;8,3
2017-07-04 03:00;2,4
2017-07-04 03:15;2,55
2017-07-04 03:30;2,25
2017-07-04 03:45;3,85
2017-07-04 04:00;3,2
2017-07-04 04:15;3,3
2017-07-04 04:30;3,75
2017-07-04 04:45;3,75
2017-07-04 05:00;3,35
2017-07-04 05:15;3,25
2017-07-04 05:30;2,95
2017-07-04 05:45;1,7
2017-07-04 06:00;1,8
2017-07-04 06:15;3,05
2017-07-04 06:30;2,25
2017-07-04 06:45;9,05
2017-07-04 07:00;11,65
2017-07-04 07:15;14,5
2017-07-04 07:30;50,25
2017-07-04 07:45;32,9
2017-07-04 08:00;30,9
2017-07-04 08:15;29,9
2017-07-04 08:30;31,5
2017-07-04 08:45;34,1
2017-07-04 09:00;37,95
2017-07-04 09:15;38,45
2017-07-04 09:30;45,15
2017-07-04 09:45;67,3
2017-07-04 10:00;55,55
2017-07-04 10:15;61,9
2017-07-04 10:30;99,15
2017-07-04 10:45;101,3
2017-07-04 11:00;90,4
2017-07-04 11:15;104,75
2017-07-04 11:30;96,65
2017-07-04 11:45;91,6
2017-07-04 12:00;89,2
2017-07-04 12:15;86,35
2017-07-04 12:30;99,6
2017-07-04 12:45;120,55
2017-07-04 13:00;110,5
2017-07-04 13:15;98,95
2017-07-04 13:30;96,4
2017-07-04 13:45;92,7
2017-07-04 14:00;88,85
2017-07-04 14:15;89
2017-07-04 14:30;90,5
2017-07-04 14:45;86
2017-07-04 15:00;80,9
2017-07-04 15:15;109
2017-07-04 15:30;108,7
2017-07-04 15:45;84,25
2017-07-04 16:00;91,75
2017-07-04 16:15;73,2
2017-07-04 16:30;74,35
2017-07-04 16:45;84,15
2017-07-04 17:00;71
2017-07-04 17:15;68,8
2017-07-04 17:30;68,55
2017-07-04 17:45;64,55
2017-07-04 18:00;57,5
2017-07-04 18:15;59,05
2017-07-04 18:30;52,45
2017-07-04 18:45;54,1
2017-07-04 19:00;44,7
2017-07-04 19:15;41,05
2017-07-04 19:30;45,65
2017-07-04 19:45;45,85
2017-07-04 20:00;36,95
2017-07-04 20:15;33,4
2017-07-04 20:30;36,1
2017-07-04 20:45;35,9
2017-07-04 21:00;30,1
2017-07-04 21:15;31,8
2017-07-04 21:30;28,3
2017-07-04 21:45;29,7
2017-07-04 22:00;27,6
2017-07-04 22:15;28,05
2017-07-04 22:30;32,05
2017-07-04 22:45;28,1
2017-07-04 23:00;21,75
2017-07-04 23:15;27,4
2017-07-04 23:30;18,45
2017-07-04 23:45;16,2
2017-07-05 00:00;11,6
2017-07-05 00:15;4,7
2017-07-05 00:30;9,6
2017-07-05 00:45;6,6
2017-07-05 01:00;4,9
2017-07-05 01:15;6,2
2017-07-05 01:30;7,45
2017-07-05 01:45;5,95
2017-07-05 02:00;8,55
2017-07-05 02:15;8,95
2017-07-05 02:30;11,2
2017-07-05 02:45;5,15
2017-07-05 03:00;9,05
2017-07-05 03:15;8,6
2017-07-05 03:30;5,85
2017-07-05 03:45;8,75
2017-07-05 04:00;9,3
2017-07-05 04:15;10,5
2017-07-05 04:30;7,5
2017-07-05 04:45;9,8
2017-07-05 05:00;9,4
2017-07-05 05:15;8,6
2017-07-05 05:30;8,05
2017-07-05 05:45;10,15
2017-07-05 06:00;9
2017-07-05 06:15;8,5
2017-07-05 06:30;9,35
2017-07-05 06:45;20,05
2017-07-05 07:00;19,2
2017-07-05 07:15;25,45
2017-07-05 07:30;29,25
2017-07-05 07:45;63
2017-07-05 08:00;58,4
2017-07-05 08:15;56,2
2017-07-05 08:30;54,15
2017-07-05 08:45;52,3
2017-07-05 09:00;57,4
2017-07-05 09:15;62,2
2017-07-05 09:30;61,35
2017-07-05 09:45;62,65
2017-07-05 10:00;60,3
2017-07-05 10:15;89,55
2017-07-05 10:30;95,1
2017-07-05 10:45;74,7
2017-07-05 11:00;82,45
2017-07-05 11:15;82,55
2017-07-05 11:30;72,25
2017-07-05 11:45;75,1
2017-07-05 12:00;75,95
2017-07-05 12:15;74,8
2017-07-05 12:30;73,3
2017-07-05 12:45;74,1
2017-07-05 13:00;76,45
2017-07-05 13:15;75,55
2017-07-05 13:30;74,15
2017-07-05 13:45;69,5
2017-07-05 14:00;71,65
2017-07-05 14:15;77
2017-07-05 14:30;107,3
2017-07-05 14:45;103,6
2017-07-05 15:00;74,6
2017-07-05 15:15;87,35
2017-07-05 15:30;85,35
2017-07-05 15:45;81,5
2017-07-05 16:00;82,9
2017-07-05 16:15;82,45
2017-07-05 16:30;62,25
2017-07-05 16:45;60,55
2017-07-05 17:00;62,55
2017-07-05 17:15;54,55
2017-07-05 17:30;64,7
2017-07-05 17:45;85,65
2017-07-05 18:00;55,25
2017-07-05 18:15;59,45
2017-07-05 18:30;57,8
2017-07-05 18:45;43
2017-07-05 19:00;38,95
2017-07-05 19:15;33,5
2017-07-05 19:30;32,35
2017-07-05 19:45;28,3
2017-07-05 20:00;26,6
2017-07-05 20:15;25,15
2017-07-05 20:30;23,9
2017-07-05 20:45;24,75
2017-07-05 21:00;25,75
2017-07-05 21:15;14,75
2017-07-05 21:30;14,4
2017-07-05 21:45;13,7
2017-07-05 22:00;14,15
2017-07-05 22:15;12,25
2017-07-05 22:30;11,55
2017-07-05 22:45;7,4
2017-07-05 23:00;10,05
2017-07-05 23:15;8,35
2017-07-05 23:30;1,8
2017-07-05 23:45;1,95
2017-07-06 00:00;2,85
2017-07-06 00:15;4,15
2017-07-06 00:30;2,55
2017-07-06 00:45;2,05
2017-07-06 01:00;3,8
2017-07-06 01:15;5,9
2017-07-06 01:30;4,2
2017-07-06 01:45;4,5
2017-07-06 02:00;4,6
2017-07-06 02:15;5,5
2017-07-06 02:30;4,95
2017-07-06 02:45;4,25
2017-07-06 03:00;5,85
2017-07-06 03:15;5,95
2017-07-06 03:30;5,85
2017-07-06 03:45;6,35
2017-07-06 04:00;7,3
2017-07-06 04:15;5,85
2017-07-06 04:30;6,4
2017-07-06 04:45;7
2017-07-06 05:00;6,75
2017-07-06 05:15;7,15
2017-07-06 05:30;6,75
2017-07-06 05:45;7,3
2017-07-06 06:00;7,3
2017-07-06 06:15;9,2
2017-07-06 06:30;5,35
2017-07-06 06:45;15,45
2017-07-06 07:00;16,1
2017-07-06 07:15;15,85
2017-07-06 07:30;51,95
2017-07-06 07:45;61,45
2017-07-06 08:00;62,9
2017-07-06 08:15;43,3
2017-07-06 08:30;52,7
2017-07-06 08:45;60,25
2017-07-06 09:00;75,75
2017-07-06 09:15;74,65
2017-07-06 09:30;75,3
2017-07-06 09:45;79,3
2017-07-06 10:00;74,45
2017-07-06 10:15;76,85
2017-07-06 10:30;72,1
2017-07-06 10:45;62,15
2017-07-06 11:00;67
2017-07-06 11:15;68,35
2017-07-06 11:30;69,05
2017-07-06 11:45;71,25
2017-07-06 12:00;80,15
2017-07-06 12:15;98,7
2017-07-06 12:30;107,9
2017-07-06 12:45;80,35
2017-07-06 13:00;86,4
2017-07-06 13:15;87,15
2017-07-06 13:30;81,8
2017-07-06 13:45;80,35
2017-07-06 14:00;87
2017-07-06 14:15;86,6
2017-07-06 14:30;76,9
2017-07-06 14:45;75,6
2017-07-06 15:00;75,4
2017-07-06 15:15;74,45
2017-07-06 15:30;68,35
2017-07-06 15:45;57,5
2017-07-06 16:00;56,2
2017-07-06 16:15;52,5
2017-07-06 16:30;50,25
2017-07-06 16:45;53,85
2017-07-06 17:00;49,55
2017-07-06 17:15;47,1
2017-07-06 17:30;45,5
2017-07-06 17:45;47,55
2017-07-06 18:00;42,85
2017-07-06 18:15;41,25
2017-07-06 18:30;36,8
2017-07-06 18:45;36,65
2017-07-06 19:00;28,6
2017-07-06 19:15;23
2017-07-06 19:30;22,5
2017-07-06 19:45;21,55
2017-07-06 20:00;18,95
2017-07-06 20:15;17,05
2017-07-06 20:30;19,45
2017-07-06 20:45;22
2017-07-06 21:00;18
2017-07-06 21:15;18,85
2017-07-06 21:30;19,1
2017-07-06 21:45;19,4
2017-07-06 22:00;19,5
2017-07-06 22:15;20,2
2017-07-06 22:30;24
2017-07-06 22:45;24,95
2017-07-06 23:00;22,15
2017-07-06 23:15;22,8
2017-07-06 23:30;24,3
2017-07-06 23:45;24,1
2017-07-07 00:00;24,95
2017-07-07 00:15;25,55
2017-07-07 00:30;27,65
2017-07-07 00:45;14,7
2017-07-07 01:00;5,15
2017-07-07 01:15;4,7
2017-07-07 01:30;3,55
2017-07-07 01:45;3,9
2017-07-07 02:00;3,85
2017-07-07 02:15;2,75
2017-07-07 02:30;2,9
2017-07-07 02:45;3,7
2017-07-07 03:00;5,15
2017-07-07 03:15;5,1
2017-07-07 03:30;6,15
2017-07-07 03:45;5,9
2017-07-07 04:00;5,3
2017-07-07 04:15;5,55
2017-07-07 04:30;4,95
2017-07-07 04:45;6,15
2017-07-07 05:00;6
2017-07-07 05:15;5,85
2017-07-07 05:30;6,2
2017-07-07 05:45;4,8
2017-07-07 06:00;4,35
2017-07-07 06:15;5,8
2017-07-07 06:30;4,55
2017-07-07 06:45;3,85
2017-07-07 07:00;14,2
2017-07-07 07:15;16,9
2017-07-07 07:30;51,25
2017-07-07 07:45;29
2017-07-07 08:00;25,15
2017-07-07 08:15;32,55
2017-07-07 08:30;49,65
2017-07-07 08:45;72,1
2017-07-07 09:00;72,75
2017-07-07 09:15;57,8
2017-07-07 09:30;65,35
2017-07-07 09:45;61,6
2017-07-07 10:00;64,65
2017-07-07 10:15;66,25
2017-07-07 10:30;62,75
2017-07-07 10:45;76,05
2017-07-07 11:00;70,9
2017-07-07 11:15;72,1
2017-07-07 11:30;87,95
2017-07-07 11:45;89,55
2017-07-07 12:00;90,45
2017-07-07 12:15;88,85
2017-07-07 12:30;88,85
2017-07-07 12:45;79,2
2017-07-07 13:00;80,2
2017-07-07 13:15;74,25
2017-07-07 13:30;70,15
2017-07-07 13:45;72,4
2017-07-07 14:00;75,5
2017-07-07 14:15;72,65
2017-07-07 14:30;71
2017-07-07 14:45;70,95
2017-07-07 15:00;70,15
2017-07-07 15:15;73,05
2017-07-07 15:30;78,95
2017-07-07 15:45;75,9
2017-07-07 16:00;71,55
2017-07-07 16:15;59,15
2017-07-07 16:30;58,3
2017-07-07 16:45;60,85
2017-07-07 17:00;57,15
2017-07-07 17:15;59,35
2017-07-07 17:30;56,55
2017-07-07 17:45;53,5
2017-07-07 18:00;53,4
2017-07-07 18:15;51,2
2017-07-07 18:30;50,15
2017-07-07 18:45;41,45
2017-07-07 19:00;34,8
2017-07-07 19:15;29,25
2017-07-07 19:30;27
2017-07-07 19:45;26,95
2017-07-07 20:00;22,1
2017-07-07 20:15;23,55
2017-07-07 20:30;23,45
2017-07-07 20:45;24,7
2017-07-07 21:00;21,4
2017-07-07 21:15;21,5
2017-07-07 21:30;23,95
2017-07-07 21:45;23,9
2017-07-07 22:00;23,9
2017-07-07 22:15;23,35
2017-07-07 22:30;22,25
2017-07-07 22:45;20,2
2017-07-07 23:00;20,3
2017-07-07 23:15;22,25
2017-07-07 23:30;23
2017-07-07 23:45;23,3
2017-07-08 00:00;20,5
2017-07-08 00:15;16,75
2017-07-08 00:30;25,95
2017-07-08 00:45;24,1
2017-07-08 01:00;20
2017-07-08 01:15;18,2
2017-07-08 01:30;12,1
2017-07-08 01:45;8,9
2017-07-08 02:00;2,7
2017-07-08 02:15;2,05
2017-07-08 02:30;1,15
2017-07-08 02:45;2,05
2017-07-08 03:00;2,65
2017-07-08 03:15;0,5
2017-07-08 03:30;0,4
2017-07-08 03:45;1,05
2017-07-08 04:00;1,65
2017-07-08 04:15;0,85
2017-07-08 04:30;0,35
2017-07-08 04:45;0,05
2017-07-08 05:00;0,55
2017-07-08 05:15;0
2017-07-08 05:30;0
2017-07-08 05:45;0
2017-07-08 06:00;0
2017-07-08 06:15;0,55
2017-07-08 06:30;0,5
2017-07-08 06:45;0,55
2017-07-08 07:00;0,3
2017-07-08 07:15;0,3
2017-07-08 07:30;0,2
2017-07-08 07:45;0,55
2017-07-08 08:00;1,25
2017-07-08 08:15;2,55
2017-07-08 08:30;2,15
2017-07-08 08:45;1,8
2017-07-08 09:00;1,75
2017-07-08 09:15;1,9
2017-07-08 09:30;3,65
2017-07-08 09:45;4,35
2017-07-08 10:00;0,95
2017-07-08 10:15;0,6
2017-07-08 10:30;0,1
2017-07-08 10:45;2,8
2017-07-08 11:00;3,5
2017-07-08 11:15;4,55
2017-07-08 11:30;11,05
2017-07-08 11:45;10,8
2017-07-08 12:00;9,9
2017-07-08 12:15;8,55
2017-07-08 12:30;12,75
2017-07-08 12:45;12
2017-07-08 13:00;14,05
2017-07-08 13:15;11,95
2017-07-08 13:30;11,25
2017-07-08 13:45;12,85
2017-07-08 14:00;9,9
2017-07-08 14:15;12
2017-07-08 14:30;12,4
2017-07-08 14:45;11,65
2017-07-08 15:00;12,05
2017-07-08 15:15;13
2017-07-08 15:30;13,8
2017-07-08 15:45;14,4
2017-07-08 16:00;13
2017-07-08 16:15;13,1
2017-07-08 16:30;13,55
2017-07-08 16:45;13,95
2017-07-08 17:00;14,15
2017-07-08 17:15;14,65
2017-07-08 17:30;12,65
2017-07-08 17:45;13,5
2017-07-08 18:00;13,65
2017-07-08 18:15;14,3
2017-07-08 18:30;16,8
2017-07-08 18:45;18,4
2017-07-08 19:00;18,2
2017-07-08 19:15;17,9
2017-07-08 19:30;17,9
2017-07-08 19:45;18,7
2017-07-08 20:00;16
2017-07-08 20:15;14,7
2017-07-08 20:30;16,15
2017-07-08 20:45;15,2
2017-07-08 21:00;17,65
2017-07-08 21:15;15,4
2017-07-08 21:30;16,1
2017-07-08 21:45;15,9
2017-07-08 22:00;17
2017-07-08 22:15;15,8
2017-07-08 22:30;17,3
2017-07-08 22:45;16,5
2017-07-08 23:00;13,25
2017-07-08 23:15;13,15
2017-07-08 23:30;11,3
2017-07-08 23:45;9,8
2017-07-09 00:00;12,6
2017-07-09 00:15;12
2017-07-09 00:30;6,9
2017-07-09 00:45;4,2
2017-07-09 01:00;5,3
2017-07-09 01:15;7,05
2017-07-09 01:30;7,25
2017-07-09 01:45;6,9
2017-07-09 02:00;8,05
2017-07-09 02:15;7,95
2017-07-09 02:30;10
2017-07-09 02:45;9
2017-07-09 03:00;10,1
2017-07-09 03:15;10,2
2017-07-09 03:30;9,95
2017-07-09 03:45;11,15
2017-07-09 04:00;9,95
2017-07-09 04:15;7,45
2017-07-09 04:30;9,2
2017-07-09 04:45;8,5
2017-07-09 05:00;7,3
2017-07-09 05:15;6,65
2017-07-09 05:30;4,55
2017-07-09 05:45;7
2017-07-09 06:00;6,95
2017-07-09 06:15;6,95
2017-07-09 06:30;7,05
2017-07-09 06:45;6,5
2017-07-09 07:00;7,3
2017-07-09 07:15;6,6
2017-07-09 07:30;5,3
2017-07-09 07:45;5,1
2017-07-09 08:00;8,25
2017-07-09 08:15;16,9
2017-07-09 08:30;14
2017-07-09 08:45;14,75
2017-07-09 09:00;13,65
2017-07-09 09:15;13,45
2017-07-09 09:30;13
2017-07-09 09:45;23,15
2017-07-09 10:00;10,15
2017-07-09 10:15;10,15
2017-07-09 10:30;7,5
2017-07-09 10:45;6,55
2017-07-09 11:00;8,05
2017-07-09 11:15;12,5
2017-07-09 11:30;13,2
2017-07-09 11:45;12,75
2017-07-09 12:00;11,85
2017-07-09 12:15;14
2017-07-09 12:30;12,95
2017-07-09 12:45;11,75
2017-07-09 13:00;11,95
2017-07-09 13:15;12,1
2017-07-09 13:30;11,75
2017-07-09 13:45;9,2
2017-07-09 14:00;9,55
2017-07-09 14:15;9,55
2017-07-09 14:30;11,35
2017-07-09 14:45;11,55
2017-07-09 15:00;13,55
2017-07-09 15:15;12,05
2017-07-09 15:30;13,5
2017-07-09 15:45;13,95
2017-07-09 16:00;14,95
2017-07-09 16:15;12,5
2017-07-09 16:30;9,7
2017-07-09 16:45;10,2
2017-07-09 17:00;8,8
2017-07-09 17:15;8,65
2017-07-09 17:30;7,2
2017-07-09 17:45;13,3
2017-07-09 18:00;15,35
2017-07-09 18:15;16,3
2017-07-09 18:30;15,85
2017-07-09 18:45;19,5
2017-07-09 19:00;20,65
2017-07-09 19:15;18,6
2017-07-09 19:30;19,75
2017-07-09 19:45;20,1
2017-07-09 20:00;19,7
2017-07-09 20:15;21
2017-07-09 20:30;21,85
2017-07-09 20:45;20,1
2017-07-09 21:00;19,55
2017-07-09 21:15;15,3
2017-07-09 21:30;17,35
2017-07-09 21:45;17,4
2017-07-09 22:00;17,65
2017-07-09 22:15;19,75
2017-07-09 22:30;23,55
2017-07-09 22:45;22,4
2017-07-09 23:00;23,8
2017-07-09 23:15;18,05
2017-07-09 23:30;18,8
2017-07-09 23:45;17,85

